TimeEDT,TemperatureF,Dew PointF,Humidity,Sea Level PressureIn,VisibilityMPH,Wind Direction,Wind SpeedMPH,Gust SpeedMPH,PrecipitationIn,Events,Conditions,WindDirDegrees,DateUTC
12:53 AM,59.0,50.0,72,30.29,10.0,NE,6.9,-,N/A,,Clear,40,2013-03-29 04:53:00
1:53 AM,57.0,48.0,72,30.28,10.0,NNE,4.6,-,N/A,,Clear,20,2013-03-29 05:53:00
2:53 AM,59.0,48.9,69,30.27,10.0,NE,10.4,-,N/A,,Clear,50,2013-03-29 06:53:00
3:53 AM,59.0,48.0,67,30.26,10.0,ENE,12.7,-,N/A,,Clear,60,2013-03-29 07:53:00
4:53 AM,57.9,48.0,70,30.26,10.0,East,8.1,-,N/A,,Clear,80,2013-03-29 08:53:00
5:53 AM,59.0,48.9,69,30.26,10.0,East,9.2,-,N/A,,Clear,80,2013-03-29 09:53:00
6:53 AM,59.0,48.9,69,30.27,10.0,East,9.2,-,N/A,,Clear,90,2013-03-29 10:53:00
7:53 AM,59.0,48.0,67,30.30,10.0,East,6.9,-,N/A,,Clear,80,2013-03-29 11:53:00
8:53 AM,59.0,48.9,69,30.31,10.0,ENE,9.2,-,N/A,,Clear,70,2013-03-29 12:53:00
9:53 AM,62.1,46.9,58,30.33,10.0,East,9.2,-,N/A,,Clear,90,2013-03-29 13:53:00
10:53 AM,64.9,44.1,47,30.34,10.0,East,9.2,-,N/A,,Clear,90,2013-03-29 14:53:00
11:53 AM,68.0,39.9,36,30.33,10.0,East,9.2,-,N/A,,Clear,90,2013-03-29 15:53:00
12:53 PM,70.0,43.0,38,30.30,10.0,East,5.8,-,N/A,,Clear,90,2013-03-29 16:53:00
1:53 PM,71.1,37.9,30,30.28,10.0,ESE,3.5,-,N/A,,Clear,120,2013-03-29 17:53:00
2:53 PM,73.9,33.1,22,30.26,10.0,Calm,Calm,-,N/A,,Clear,0,2013-03-29 18:53:00
3:53 PM,73.9,32.0,21,30.23,10.0,East,3.5,-,N/A,,Clear,80,2013-03-29 19:53:00
4:53 PM,73.9,32.0,21,30.21,10.0,ESE,4.6,-,N/A,,Clear,120,2013-03-29 20:53:00
5:53 PM,72.0,32.0,23,30.20,10.0,WNW,3.5,-,N/A,,Clear,290,2013-03-29 21:53:00
6:53 PM,71.1,42.1,35,30.20,10.0,NW,8.1,-,N/A,,Clear,320,2013-03-29 22:53:00
7:53 PM,66.9,44.1,44,30.21,10.0,NW,9.2,-,N/A,,Clear,320,2013-03-29 23:53:00
8:53 PM,64.9,44.1,47,30.23,10.0,North,4.6,-,N/A,,Clear,360,2013-03-30 00:53:00
9:53 PM,64.0,46.0,52,30.25,10.0,North,3.5,-,N/A,,Clear,350,2013-03-30 01:53:00
10:53 PM,63.0,48.0,58,30.25,10.0,North,4.6,-,N/A,,Clear,10,2013-03-30 02:53:00
11:53 PM,62.1,51.1,67,30.25,10.0,NNE,3.5,-,N/A,,Clear,20,2013-03-30 03:53:00